Location: Eekwerd
(53.3234°N, 6.7984°E)
Time: 07:49:35
(UTC+00:00)

Cosmos 1076 Rocket - Pass Details

Date: 15 May 2026
Orbit: 580 x 604 km, 82.5° (Epoch: 6 June)

Event Time Altitude Azimuth Distance (km) Brightness Sun altitude
Rises 20:50:45 0° 352° (N) 2,844 8.1 -10.0°
Reaches altitude 10° 20:53:03 10° 359° (N) 1,933 7.0 -10.2°
Maximum altitude 20:57:10 46° 73° (ENE) 803 4.0 -10.6°
Enters shadow 21:00:21 16° 143° (SE) 1,576 5.0 -10.8°
